Change the Weather History Date:

Saturday, March 8, 2014

  Actual Average Record
Temperature  
Mean Temperature 49 °F 54 °F  
Max Temperature 57 °F 65 °F 83 °F (1973)
Min Temperature 40 °F 43 °F 22 °F (1996)
Degree Days  
Heating Degree Days 16 12  
Month to date heating degree days 170 100  
Since 1 July heating degree days 2638 2294  
Cooling Degree Days 0 0  
Month to date cooling degree days 0 0  
Year to date cooling degree days 0 4  
Moisture  
Dew Point 49 °F    
Average Humidity 86    
Maximum Humidity 100    
Minimum Humidity 72    
Precipitation  
Precipitation 0.05 in 0.14 in 2.88 in (1976)
Month to date precipitation 1.37 1.14  
Year to date precipitation 5.29 8.53  
Snow  
Snow 0.00 in - - ()
Month to date snowfall T  
Since 1 July snowfall 1.7  
Snow Depth 0.00 in    
Sea Level Pressure  
Sea Level Pressure 30.12 in    
Wind  
Wind Speed 4 mph (SSE)    
Max Wind Speed 15 mph    
Max Gust Speed 20 mph    
Visibility 4 miles    
Events Rain    
T = Trace of Precipitation, MM = Missing Value Source: NWS Daily Summary

Daily Weather History Graph

Daily Weather History Graph

Search for Another Location

Airport or City:

Trip Planner

Search our weather history database for the weather conditions in past years. The results will help you decide how hot, cold, wet, or windy it might be!

Date:

Astronomy

Mar. 08, 2014 Rise Set
Actual Time 6:35 AM CST 6:18 PM CST
Civil Twilight 6:10 AM CST 6:43 PM CST
Nautical Twilight 5:41 AM CST 7:12 PM CST
Astronomical Twilight 5:13 AM CST 7:40 PM CST
Moon 11:35 AM CST (3/8) 12:58 AM CST (3/8)
Length of Visible Light 12h 32m
Length of Day
11h 42m
First Quarter, 52% of the Moon is Illuminated
Mar 8
First Quarter
Mar 16
Full
Mar 23
Last Quarter
Mar 30
New
Apr 7
First Quarter

Hourly Weather History & Observations

Time (CST) Temp. Windchill Dew Point Humidity Pressure Visibility Wind Dir Wind Speed Gust Speed Precip Events Conditions
12:53 AM 48.9 °F - 42.1 °F 77% 29.99 in 10.0 mi South 8.1 mph - N/A   Clear
1:53 AM 48.0 °F - 42.1 °F 80% 29.99 in 10.0 mi South 8.1 mph - N/A   Clear
2:53 AM 46.0 °F 44.8 °F 41.0 °F 83% 29.99 in 10.0 mi SE 3.5 mph - N/A   Clear
3:53 AM 42.1 °F 39.2 °F 39.9 °F 92% 30.00 in 10.0 mi ESE 4.6 mph - N/A   Clear
4:53 AM 41.0 °F - 39.9 °F 96% 30.03 in 7.0 mi Calm Calm - N/A   Clear
5:53 AM 42.1 °F 39.2 °F 39.9 °F 92% 30.04 in 7.0 mi SE 4.6 mph - N/A   Clear
6:53 AM 46.0 °F - 43.0 °F 89% 30.06 in 9.0 mi Calm Calm - N/A   Overcast
7:05 AM 46.4 °F 45.2 °F 44.6 °F 93% 30.07 in 9.0 mi SSE 3.5 mph - N/A   Overcast
7:34 AM 46.4 °F - 44.6 °F 93% 30.08 in 9.0 mi Calm Calm - N/A   Overcast
7:53 AM 46.0 °F - 43.0 °F 89% 30.09 in 7.0 mi Calm Calm - N/A   Overcast
8:31 AM 50.0 °F - 44.6 °F 82% 30.09 in 10.0 mi SSE 5.8 mph - N/A   Overcast
8:53 AM 52.0 °F - 44.1 °F 74% 30.09 in 10.0 mi South 6.9 mph - N/A   Overcast
9:53 AM 53.1 °F - 46.0 °F 77% 30.12 in 10.0 mi South 8.1 mph - N/A   Overcast
10:43 AM 55.4 °F - 46.4 °F 72% 30.12 in 10.0 mi South 6.9 mph - N/A   Overcast
10:53 AM 55.9 °F - 46.9 °F 72% 30.12 in 10.0 mi Variable 3.5 mph - N/A   Overcast
11:44 AM 55.4 °F - 46.4 °F 72% 30.13 in 10.0 mi South 5.8 mph - N/A   Overcast
11:53 AM 55.9 °F - 46.9 °F 72% 30.12 in 10.0 mi South 5.8 mph - 0.00 in Rain Light Rain
12:53 PM 55.9 °F - 46.9 °F 72% 30.10 in 10.0 mi SE 3.5 mph - 0.00 in   Overcast
1:53 PM 55.9 °F - 46.9 °F 72% 30.10 in 7.0 mi Calm Calm - N/A   Overcast
2:06 PM 53.6 °F - 48.2 °F 82% 30.10 in 2.0 mi Calm Calm - 0.00 in Rain Light Rain
2:14 PM 53.6 °F - 48.2 °F 82% 30.10 in 1.5 mi Calm Calm - 0.00 in Rain Light Rain
2:36 PM 53.6 °F - 50.0 °F 88% 30.10 in 1.5 mi Calm Calm - 0.01 in Rain Light Rain
2:53 PM 52.0 °F - 51.1 °F 97% 30.08 in 1.5 mi ESE 3.5 mph - 0.02 in Rain Light Rain
3:05 PM 51.8 °F - 51.8 °F 100% 30.09 in 2.5 mi ESE 3.5 mph - 0.00 in   Overcast
3:12 PM 51.8 °F - 51.8 °F 100% 30.09 in 3.0 mi Calm Calm - 0.00 in   Overcast
3:20 PM 53.6 °F - 51.8 °F 94% 30.09 in 3.0 mi Calm Calm - 0.00 in   Overcast
3:53 PM 53.1 °F - 51.1 °F 93% 30.09 in 3.0 mi Calm Calm - 0.00 in   Overcast
4:06 PM 53.6 °F - 51.8 °F 94% 30.09 in 4.0 mi Calm Calm - N/A   Overcast
4:35 PM 53.6 °F - 51.8 °F 94% 30.11 in 4.0 mi Calm Calm - N/A   Overcast
4:49 PM 53.6 °F - 51.8 °F 94% 30.11 in 4.0 mi Calm Calm - N/A   Overcast
4:53 PM 53.1 °F - 51.1 °F 93% 30.11 in 3.0 mi Calm Calm - N/A   Overcast
5:02 PM 53.6 °F - 51.8 °F 94% 30.12 in 3.0 mi Calm Calm - N/A   Overcast
5:24 PM 53.6 °F - 51.8 °F 94% 30.12 in 2.5 mi Calm Calm - N/A   Overcast
5:36 PM 53.6 °F - 51.8 °F 94% 30.13 in 1.8 mi Calm Calm - N/A   Overcast
5:53 PM 52.0 °F - 51.1 °F 97% 30.13 in 1.5 mi Calm Calm - N/A   Overcast
5:55 PM 51.8 °F - 51.8 °F 100% 30.13 in 1.2 mi Calm Calm - N/A   Overcast
6:06 PM 51.8 °F - 51.8 °F 100% 30.13 in 1.0 mi Calm Calm - N/A   Overcast
6:24 PM 51.8 °F - 51.8 °F 100% 30.13 in 1.8 mi Calm Calm - N/A   Overcast
6:34 PM 51.8 °F - 51.8 °F 100% 30.14 in 2.5 mi Calm Calm - N/A   Overcast
6:53 PM 52.0 °F - 50.0 °F 93% 30.14 in 2.0 mi Calm Calm - N/A   Overcast
7:04 PM 51.8 °F - 51.8 °F 100% 30.15 in 1.8 mi Calm Calm - N/A   Overcast
7:10 PM 51.8 °F - 51.8 °F 100% 30.15 in 1.2 mi Calm Calm - N/A   Overcast
7:27 PM 51.8 °F - 51.8 °F 100% 30.15 in 1.2 mi Calm Calm - N/A   Overcast
7:53 PM 52.0 °F - 51.1 °F 97% 30.16 in 1.2 mi Calm Calm - N/A   Overcast
8:02 PM 51.8 °F - 51.8 °F 100% 30.17 in 1.0 mi Calm Calm - N/A   Overcast
8:23 PM 51.8 °F - 51.8 °F 100% 30.18 in 0.8 mi Calm Calm - N/A   Overcast
8:45 PM 51.8 °F - 51.8 °F 100% 30.18 in 1.0 mi Calm Calm - N/A   Overcast
8:53 PM 52.0 °F - 51.1 °F 97% 30.18 in 0.8 mi North 3.5 mph - 0.01 in   Mist
9:19 PM 51.8 °F - 51.8 °F 100% 30.19 in 1.0 mi Calm Calm - N/A   Overcast
9:29 PM 51.8 °F - 51.8 °F 100% 30.19 in 2.0 mi Calm Calm - N/A   Overcast
9:53 PM 52.0 °F - 51.1 °F 97% 30.20 in 2.0 mi NW 3.5 mph - N/A   Overcast
10:07 PM 51.8 °F - 51.8 °F 100% 30.21 in 1.8 mi Calm Calm - N/A   Overcast
10:20 PM 51.8 °F - 51.8 °F 100% 30.21 in 2.0 mi Calm Calm - N/A   Overcast
10:53 PM 52.0 °F - 50.0 °F 93% 30.21 in 2.5 mi NW 6.9 mph - 0.00 in Rain Light Rain
11:53 PM 48.0 °F - 46.9 °F 96% 30.22 in 3.0 mi NW 12.7 mph - 0.02 in Rain Light Rain